Hickory, NC

3:47 AM EDT on July 24, 2017 (GMT -0400)
Hickory Regional

Weather History for KHKY - February, 2012

Change the Weather History Date:

Saturday, February 4, 2012

  Actual Average Record
Temperature  
Mean Temperature 46 °F -  
Max Temperature 50 °F 51 °F 75 °F (1991)
Min Temperature 41 °F 29 °F 1 °F (2016)
Degree Days  
Heating Degree Days 20    
Moisture  
Dew Point 42 °F    
Average Humidity 85    
Maximum Humidity 100    
Minimum Humidity 54    
Precipitation  
Precipitation 0.12 in - - ()
Sea Level Pressure  
Sea Level Pressure 30.14 in    
Wind  
Wind Speed 2 mph (SSW)    
Max Wind Speed 9 mph    
Max Gust Speed -    
Visibility 6 miles    
Events Rain    
Averages and records for this station are not official NWS values.
T = Trace of Precipitation, MM = Missing Value Source: NWS Daily Summary

Daily Weather History Graph

Daily Weather History Graph

Search for Another Location

Airport or City:

Trip Planner

Search our weather history database for the weather conditions in past years. The results will help you decide how hot, cold, wet, or windy it might be!

Date:

Astronomy

Feb. 04, 2012 Rise Set
Actual Time 7:23 AM EST 5:55 PM EST
Civil Twilight 6:56 AM EST 6:22 PM EST
Nautical Twilight 6:26 AM EST 6:52 PM EST
Astronomical Twilight 5:56 AM EST 7:22 PM EST
Moon 2:55 PM EST (2/4) 4:44 AM EST (2/4)
Length of Visible Light 11h 25m
Length of Day
10h 31m
Waxing Gibbous, 89% of the Moon is Illuminated
Feb 4
Waxing Gibbous
Feb 7
Full
Feb 14
Last Quarter
Feb 21
New
Feb 29
First Quarter

Hourly Weather History & Observations

Time (EST) Temp. Windchill Dew Point Humidity Pressure Visibility Wind Dir Wind Speed Gust Speed Precip Events Conditions
12:53 AM 43.0 °F 41.3 °F 32.0 °F 65% 30.31 in 10.0 mi SSW 3.5 mph - N/A   Clear
1:53 AM 41.0 °F - 33.1 °F 73% 30.30 in 10.0 mi Calm Calm - N/A   Clear
2:53 AM 42.1 °F - 34.0 °F 73% 30.29 in 10.0 mi Calm Calm - N/A   Clear
3:53 AM 46.0 °F 42.5 °F 32.0 °F 58% 30.26 in 10.0 mi SSW 6.9 mph - N/A   Overcast
4:53 AM 46.9 °F - 32.0 °F 56% 30.26 in 10.0 mi SSW 5.8 mph - N/A   Overcast
5:53 AM 46.9 °F - 30.9 °F 54% 30.26 in 10.0 mi SSW 4.6 mph - N/A   Overcast
6:53 AM 46.0 °F 43.9 °F 33.1 °F 61% 30.27 in 10.0 mi SSW 4.6 mph - 0.00 in Rain Light Rain
7:53 AM 45.0 °F - 35.1 °F 68% 30.27 in 10.0 mi Calm Calm - 0.00 in   Overcast
8:53 AM 43.0 °F - 39.9 °F 89% 30.27 in 10.0 mi Calm Calm - 0.02 in Rain Light Rain
9:45 AM 44.6 °F - 39.2 °F 81% 30.28 in 5.0 mi Calm Calm - 0.02 in Rain Light Rain
9:53 AM 44.1 °F - 39.9 °F 85% 30.26 in 7.0 mi Calm Calm - 0.02 in Rain Light Rain
10:15 AM 44.6 °F 43.1 °F 39.2 °F 81% 30.27 in 6.0 mi South 3.5 mph - 0.01 in Rain Light Rain
10:53 AM 44.1 °F 42.5 °F 41.0 °F 89% 30.25 in 10.0 mi SSW 3.5 mph - 0.01 in   Overcast
11:53 AM 45.0 °F - 39.9 °F 82% 30.21 in 10.0 mi Calm Calm - 0.02 in   Overcast
12:53 PM 45.0 °F - 42.1 °F 90% 30.17 in 5.0 mi Calm Calm - 0.00 in Rain Light Rain
1:53 PM 45.0 °F - 43.0 °F 93% 30.13 in 5.0 mi Calm Calm - 0.02 in Rain Light Rain
2:34 PM 46.4 °F - 44.6 °F 93% 30.11 in 3.0 mi Calm Calm - 0.01 in   Overcast
2:53 PM 46.9 °F - 45.0 °F 93% 30.09 in 2.5 mi South 5.8 mph - 0.01 in   Overcast
3:15 PM 50.0 °F - 46.4 °F 87% 30.11 in 2.5 mi South 6.9 mph - N/A   Overcast
3:53 PM 48.9 °F - 46.0 °F 90% 30.06 in 4.0 mi SSW 9.2 mph - N/A   Overcast
4:53 PM 50.0 °F - 46.0 °F 86% 30.05 in 5.0 mi Variable 4.6 mph - N/A   Overcast
5:53 PM 48.9 °F - 46.0 °F 90% 30.05 in 6.0 mi WSW 3.5 mph - N/A   Overcast
6:53 PM 48.9 °F - 46.9 °F 93% 30.06 in 6.0 mi Calm Calm - N/A   Overcast
7:04 PM 48.2 °F - 46.4 °F 93% 30.09 in 6.0 mi Calm Calm - 0.00 in Rain Light Rain
7:53 PM 48.9 °F - 46.9 °F 93% 30.06 in 4.0 mi Calm Calm - 0.00 in Rain Light Rain
8:53 PM 48.9 °F - 46.9 °F 93% 30.04 in 3.0 mi South 3.5 mph - 0.01 in Rain Light Rain
9:42 PM 48.2 °F - 48.2 °F 100% 30.04 in 1.8 mi Calm Calm - 0.01 in   Overcast
9:51 PM 48.2 °F - 48.2 °F 100% 30.05 in 2.0 mi NNW 3.5 mph - 0.01 in Rain Light Rain
9:53 PM 48.9 °F - 48.0 °F 97% 30.02 in 2.0 mi Calm Calm - 0.01 in Rain Light Rain
10:07 PM 48.2 °F - 46.4 °F 93% 30.03 in 1.8 mi Calm Calm - 0.00 in Rain Light Rain
10:10 PM 48.2 °F - 46.4 °F 93% 30.04 in 2.0 mi Calm Calm - 0.00 in   Overcast
10:16 PM 48.2 °F - 46.4 °F 93% 30.05 in 1.8 mi NNW 8.1 mph - 0.00 in   Overcast
10:38 PM 48.2 °F - 48.2 °F 100% 30.03 in 2.5 mi Calm Calm - 0.00 in   Overcast
10:49 PM 48.2 °F - 46.4 °F 93% 30.03 in 2.5 mi Calm Calm - 0.00 in Rain Light Rain
10:53 PM 48.9 °F - 46.9 °F 93% 30.00 in 3.0 mi Calm Calm - 0.00 in   Overcast
11:53 PM 48.9 °F - 48.0 °F 97% 30.00 in 3.0 mi Calm Calm - 0.00 in Rain Light Rain